www.pogodaiklimat.ru

Погода и климат >> Архив погоды >> Индонезия >> Бандунг


ПОГОДА в Бандунге

  • Прогноз погоды в Бандунге
  • Монитор погоды в Бандунге

АРХИВ ПОГОДЫ в Бандунге

Время (UTC), дата Ветер
(напр.,м/с)
 
Видим.   Явления Облачность Т
(С)
Тd
(С)
f
(%)
Тe
(С)
Тes
(С)
Комфортность P
(гПа)
Po
(гПа)
Тmin
(С)
Tmax
(С)
R
(мм)
R24
(мм)
S
(см)
06 13.05 З 3 8000 м мгла 8/5 500 м
[Cu Sc Ac trans Ci fib]
+27.3 +22.4 75 +36 +40 очень
душно
1014.5 928.6
09 13.05 СЗ 2 7000 м в посл. час дождь {гроза} 6/4 500 м
[Sc Ac trans Ci fib]
+25.3 +23.6 90 +34 +36 очень
душно
1012.9 927.0 2
12 13.05 З 2 5000 м мгла 6/4 500 м
[Sc Ac trans Ci fib]
+24.7 +22.0 85 +32 +32 очень
душно
1014.5 928.6 +29.8 2
15 13.05 СЗ 3 5000 м мгла 6/4 500 м
[Sc Ac trans Ci fib]
+23.8 +22.3 91 +31 +31 очень
душно
1016.4 930.3
18 13.05 ЮВ 2 4000 м мгла 6/4 500 м
[Sc Ac trans Ci fib]
+23.4 +22.1 92 +32 +32 очень
душно
1015.7 929.6
21 13.05 ЮВ 2 4000 м мгла 6/4 500 м
[Sc Ac trans Ci fib]
+21.6 +20.7 95 +27 +27 душно 1015.1 929.1
00 14.05 СВ 3 50 км мгла ?/? +21.4 +20.3 93 +27 +28 душно 1016.3 930.2 +20.0 2
03 14.05 Ю 5 8000 м мгла 3/1 500 м
[Cu hum Ci fib]
+27.2 +20.4 66 +34 +40 очень
душно
1016.7 930.5
06 14.05 СЗ 3 10 км 8/5 500 м
[Cb cap Ac trans Ci fib]
+27.8 +18.8 58 +33 +38 очень
душно
1016.4 930.3
09 14.05 ЮЗ 3 6000 м мгла {дождь} 8/5 500 м
[Cb cap Ac trans Ci fib]
+25.0 +22.1 84 +32 +33 очень
душно
1013.7 927.8 3
12 14.05 штиль 0 5000 м мгла 5/3 540 м
[Sc Ac trans Ci fib]
+23.9 +22.6 92 +31 +31 очень
душно
1015.5 929.5 +29.2 3
15 14.05 штиль 0 3000 м мгла 5/3 540 м
[Sc Ac trans Ci fib]
+22.7 +22.2 97 +31 +31 очень
душно
1017.0 930.9
18 14.05 штиль 0 3000 м мгла 4/1 540 м
[Sc Ci fib]
+21.3 +20.1 93 +26 +26 душно 1016.0 929.9
21 14.05 В 2 5000 м мгла 3/0
[Ci fib]
+20.6 +19.9 96 +26 +26 душно 1015.1 929.1
00 15.05 ЮЗ 1 3000 м мгла 3/0 300 м
[Ci fib]
+21.2 +19.7 91 +26 +27 душно 1016.5 930.4 +19.2 3
03 15.05 ЮВ 3 5000 м мгла 4/3 540 м
[Cu med, cong Ci fib]
+27.4 +22.0 72 +35 +44 очень
душно
1016.8 930.7
06 15.05 СЗ 6 7000 м мгла 9/6 540 м
[Cu Sc Ac As Ci fib]
+27.6 +22.9 76 +37 +38 очень
душно
1014.1 928.2
09 15.05 В 3 7000 м в посл. час гроза 8/4 540 м
[Cu Sc Ac As Ci fib]
+26.0 +20.2 70 +32 +33 очень
душно
1013.4 927.6 21
12 15.05 СЗ 3 3000 м гроза, ливневой дождь 10/6 500 м
[Cb cap Ac As Ci fib]
+22.0 +21.1 95 +28 +28 душно 1016.8 930.7 +30.6 7
15 15.05 ЮВ 1 4000 м слаб. дождь 9/5 500 м
[Cb cap Ac As Ci fib]
+21.6 +21.0 96 +27 +27 душно 1017.6 931.6 4
21 15.05 ЮВ 1 4000 м мгла 8/4 540 м
[Sc Ac As Ci fib]
+21.2 +20.3 95 +26 +26 душно 1016.1 930.0
00 16.05 ЮВ 2 3000 м мгла 3/0
[Ci fib]
+21.2 +19.9 92 +26 +27 душно 1017.4 931.2 +19.6 33
03 16.05 В 2 2500 м мгла 4/3 540 м
[Cu hum Ci fib]
+26.7 +20.1 67 +33 +43 очень
душно
1018.3 932.1
06 16.05 З 7 7000 м мгла 4/3 540 м
[Cu med, cong Ci fib]
+28.8 +22.7 70 +38 +41 очень
душно
1015.1 929.1
09 16.05 З 4 7000 м мгла 8/5 500 м
[Cb cap Ac trans Ci fib]
+27.6 +21.3 69 +35 +36 очень
душно
1014.1 928.2
12 16.05 З 4 4000 м мгла {дождь} 9/4 540 м
[Sc Ac As Ci fib]
+23.0 +22.3 96 +31 +31 очень
душно
1015.7 929.6 +29.8 32
15 16.05 штиль 0 6000 м мгла 4/3 540 м
[Sc Ac trans Ci fib]
+22.1 +20.6 91 +28 +28 душно 1017.8 931.6
18 16.05 СЗ 2 4000 м мгла 8/4 540 м
[Sc Ac trans Ci fib]
+22.1 +21.2 95 +29 +29 очень
душно
1017.3 931.1
21 16.05 штиль 0 5000 м мгла 8/4 540 м
[Sc Ac trans Ci fib]
+20.8 +19.4 92 +25 +25 комфорт 1016.1 930.0
03 17.05 В 4 10 км 4/3 540 м
[Sc Ci fib]
+26.0 +17.0 58 +30 +36 душно 1017.4 931.2
09 17.05 СЗ 4 8000 м мгла 6/4 540 м
[Cu med, cong Ac trans Ci fib]
+27.3 +20.4 66 +34 +35 очень
душно
1013.8 927.7
12 17.05 ЮЗ 2 5000 м мгла 6/3 540 м
[Sc Ac trans Ci fib]
+25.2 +20.0 73 +31 +31 очень
душно
1015.5 929.5 +30.0
18 17.05 ЮВ 2 5000 м мгла 5/3 540 м
[Sc Ac trans Ci fib]
+23.0 +19.1 79 +29 +29 очень
душно
1016.5 930.4
21 17.05 В 2 5000 м мгла 5/3 500 м
[Sc Ac trans Ci fib]
+20.0 +18.4 91 +24 +24 комфорт 1015.9 929.8
00 18.05 В 2 6000 м мгла 4/3 540 м
[Sc Ac trans Ci fib]
+20.0 +17.3 84 +24 +25 комфорт 1017.2 931.0 +18.6
03 18.05 ЮВ 2 7000 м мгла 4/3 540 м
[Cu med, cong Ac trans Ci fib]
+26.0 +16.2 55 +29 +39 душно 1017.7 931.5
06 18.05 СЗ 2 7000 м мгла 6/4 540 м
[Cu med, cong Ac trans Ci fib]
+27.8 +17.6 54 +32 +41 душно 1015.5 929.5
09 18.05 З 6 7000 м мгла 6/4 540 м
[Cu med, cong Ac trans Ci fib]
+26.8 +19.7 65 +33 +33 очень
душно
1014.0 928.1
12 18.05 З 3 6000 м мгла 8/4 540 м
[Sc Ac As Ci fib]
+24.4 +20.4 78 +30 +30 очень
душно
1015.2 929.3 +28.4
15 18.05 З 1 5000 м мгла 5/3 540 м
[Sc Ac trans Ci fib]
+22.4 +19.2 82 +28 +28 душно 1017.4 931.2
21 18.05 В 1 6000 м мгла 5/3 540 м
[Sc Ac trans Ci fib]
+19.8 +16.2 80 +23 +23 комфорт 1016.2 930.1
00 19.05 штиль 0 2500 м мгла 3/1 540 м
[Sc Ci fib]
+20.0 +17.7 87 +23 +24 комфорт 1017.4 931.2 +18.6
03 19.05 В 2 5000 м мгла 4/3 540 м
[Sc Ci fib]
+26.7 +20.1 67 +33 +43 очень
душно
1018.3 932.1
06 19.05 З 3 6000 м мгла 6/4 500 м
[Cu Sc Ac trans Ci fib]
+28.4 +19.1 57 +34 +40 очень
душно
1015.0 929.0
09 19.05 З 8 7000 м мгла 5/4 540 м
[Cu med, cong Ac trans Ci fib]
+28.4 +19.7 59 +34 +35 очень
душно
1013.6 927.7
12 19.05 З 3 6000 м мгла 6/4 540 м
[Sc Ac trans Ci fib]
+25.0 +20.4 76 +31 +31 очень
душно
1015.4 929.4 +30.0
15 19.05 СЗ 2 6000 м мгла 6/4 540 м
[Sc Ac trans Ci fib]
+24.4 +21.0 81 +31 +31 очень
душно
1018.0 931.8
18 19.05 штиль 0 4000 м мгла 6/4 540 м
[Sc Ac trans Ci fib]
+23.6 +21.1 86 +30 +30 очень
душно
1017.0 930.9
21 19.05 штиль 0 4000 м мгла 4/3 540 м
[Sc Ac trans Ci fib]
+21.6 +20.3 92 +27 +27 душно 1015.8 929.7
00 20.05 СЗ 1 2000 м дымка 6/4 540 м
[Sc Ac trans Ci fib]
+21.0 +20.0 94 +27 +28 душно 1017.5 931.3 +19.8

 

Местоположение метеостанции Бандунг (Индонезия): широта -6.90 долгота 107.58 высота над уровнем моря 740 м.

В архиве по умолчанию представлена погода в Бандунге за последнюю неделю. Архивные данные за месяц целиком и за предыдущие месяцы, начиная с января 2011 года, Вы можете получить, выбрав интересующий диапазон дат из раскрывающегося списка и нажав кнопку "Ввод!".


*Определитесь, кто Вы:
робот инопланетянин человек

Внимание! Время в таблицах - всемирное. Для получения местного времени необходимо прибавить поправку, которая равна 7 ч.

Смотрите также архив погоды в соседних городах и на ближайших метеорологических станциях:

Погода в Цитеко (Индонезия) (75 км)
Погода в Сиребоне (Индонезия) (77 км)
Погода в Джакарте (Индонезия) (115 км)
Погода в Джакарта порту (Индонезия) (119 км)
Погода в Чуруге (Индонезия) (127 км)
Погода в Аэропорту Сукарно-Хатта (Индонезия) (134 км)
Погода в Тегале (Индонезия) (173 км)
Погода в Серанге (Индонезия) (182 км)
Погода в Чилачапе (Индонезия) (183 км)
Погода в Аэропорту Ахмад Яни (Индонезия) (309 км)

Пояснения к столбцам:

Ветер - указаны скорость ветра в м/с - средняя за 10 мин, порывы в срок и между сроками (в фигурных скобках) и направление, откуда дует ветер: С - северный, СВ - северо-восточный, В - восточный, ЮВ - юго-восточный, Ю - южный, ЮЗ - юго-западный, З - западный, СЗ - северо-западный.
Видимость - горизонтальная дальность видимости в метрах или километрах. При видимости от 1 до 10 км при отсутствии осадков обычно наблюдается дымка, при ухудшении видимости до 1 км и менее - туман. В сухую погоду видимость может ухудшаться дымом, пылью или мглою.
Явления - указаны атмосферные явления, наблюдавшиеся в срок или в последний час перед сроком; фигурными скобками обозначены явления, наблюдавшиеся между сроками (за 1-3 часа до срока); квадратными скобками обозначены град или гололедные отложения с указанием их диаметра в мм.
Облачность - указаны через наклонную черту общая и нижняя облачность в баллах и высота нижней границы облаков в метрах; квадратными скобками обозначены формы облаков: Ci - перистые, Cs - перисто-слоистые, Cc - перисто-кучевые, Ac - высококучевые, As - высокослоистые, Sc - слоисто-кучевые, Ns - слоисто-дождевые, Cu - кучевые, Cb - кучево-дождевые. Подробнее классификацию облаков см. в Атласе облаков (PDF).
T - Температура воздуха - температура, измеренная на высоте 2 м над землей.
Td - Температура точки росы - температура, при понижении до которой содержащийся в воздухе водяной пар достигнет насыщения.
f - Относительная влажность воздуха - влажноcть воздуха, измеренная на высоте 2 м над землей.
Te - Эффективная температура - температура, которую ощущает одетый по сезону человек в тени. Характеристика душности погоды. При расчете учитывается влияние влажности воздуха и скорости ветра на теплоощущения человека.
Tes - Эффективная температура на солнце - температура, которую ощущает человек, с поправкой на солнечный нагрев. Характеристика знойности погоды. Зависит от высоты солнца над горизонтом, облачности и скорости ветра. Ночью, в пасмурную погоду, а также при ветре 12 м/с и более поправка равна нулю.
P - Атмосферное давление - приведенное к уровню моря атмосферное давление.
Po - Атмосферное давление - измеренное на уровне метеостанции атмосферное давление.
Tmin - Минимальная температура - минимум температуры воздуха на высоте 2 м над землей.
Tmax - Максимальная температура - максимум температуры воздуха на высоте 2 м над землей.
R - Количество осадков - Количество выпавших осадков за период времени, мм. При наведении курсора мыши на число - период времени, за который выпало указанное количество осадков.
R24 - Количество осадков - Количество выпавших осадков за 24 часа, мм.
S - Снежный покров - Высота снежного покрова, см. При наведении курсора мыши на число - состояние снежного покрова и степень покрытия местности в баллах.